SL-14 DEB

Satellite information

Favourite Embed

Satellite Type and Status

DEBRISIN ORBIT

Key statistics

Satellite SL-14 DEB at a glance.

Uptime

13898

Days in orbit

Revolutions

≈ 13.9

Per day

Orbit

LEO

Low Earth Orbit

Inclination

82.5

Latest

Satellite identification and parameters

Extended collection of information and parameters for SL-14 DEB.

Object identification

Identified? True

Debris? True

Object name: SL-14 DEB

International designator: 1987-068CX

Object number (NORAD): 39971

Object ID (CCSDS): 39971

Country: COMMONWEALTH OF INDEPENDENT STATES (CIS)

Current information (Y/N): Y

RCS size: SMALL

Orbital parameters

Period: 103.612 minutes

Inclination: 82.4558 deg

SMA: 7307.46 km

Apoapsis: 973.189 km

Periapsis: 885.46 km

RAAN: 127.1986 deg

Eccentricy: 0.0060027

Argument of periapsis: 153.8122 deg

Mean anomaly: 223.1442 deg

Mean motion: 13.89802566 rev/day

Mean motion (dot): 0.00001854 rev/day2

B* drag term: 0.0014758659 1/REarth

Two-line elements (TLE)

Creation date: Sept. 4, 2025, 10:13 a.m.

Reference frame: TEME

Reference center: EARTH

Epoch: Sept. 3, 2025, 11:12 p.m. UTC

TLE line 0: 0 SL-14 DEB

TLE line 1: 1 39971U 87068CX 25246.96707109 .00001854 00000-0 14759-2 0 9992

TLE line 2: 2 39971 82.4558 127.1986 0060027 153.8122 223.1442 13.89802566570158

Live tracking on map

Real-time ground track for satellite SL-14 DEB.

In-orbit conjunctions

A list of the most updated potential collisions computed for object SL-14 DEB.

Target Orbit TCA Probability of collision Miss distance Type
COSMOS 1275 DEB LEO 2024-11-16 09:39:11 0.0001944389 780.0 (m) DEBRIS
MOS 1B (MOMO 1B) SSO 2024-08-08 06:02:19 0.0003949577 304.0 (m) PAYLOAD

Associated space launch

Second generation soviet meteorological satellite

SL-14 DEB was lifted into orbit during the mission ‘Tsiklon-3 | Meteor-2 16’, on board a Tsiklon-3 space rocket.

The launch took place on Aug. 18, 1987, 2:27 a.m. from 32/1.

For more information about the launch, click the button.

Launch to space Tsiklon-3 | Meteor-2 16
Tsiklon-3 | Meteor-2 16

Agency: N/A

Status: Launch Successful

Launch date: Aug. 18, 1987, 2:27 a.m. UTC

Rocket: Tsiklon-3

Launch pad: 32/1

Location: Plesetsk Cosmodrome, Russian Federation

...

Latest news about this satellite

There are no fresh news available about this satellite. Check back as we update our databases every day.


Newsletter sign-up

Weekly statistics, charts and insights to help you stay on top of the space industry.